www.pogodaiklimat.ru
Время
и дата
13:56 25.09
14:56 25.09
15:56 25.09
16:56 25.09
17:56 25.09
18:56 25.09
19:07 25.09
19:27 25.09
19:56 25.09
20:07 25.09
20:56 25.09
21:56 25.09
22:56 25.09
23:56 25.09
00:56 26.09
01:56 26.09
02:56 26.09
03:56 26.09
04:56 26.09
05:56 26.09
06:56 26.09
07:56 26.09
08:56 26.09
09:56 26.09
10:56 26.09
11:56 26.09
12:56 26.09
13:56 26.09
14:56 26.09
15:56 26.09
16:56 26.09
17:56 26.09
18:56 26.09
19:56 26.09
20:56 26.09
21:56 26.09
22:56 26.09
23:56 26.09
00:56 27.09
01:56 27.09
02:56 27.09
03:56 27.09
04:56 27.09
05:56 27.09
06:56 27.09
07:56 27.09
08:56 27.09
09:56 27.09
Ветер
(напр.,м/с)
Видим. Явления Облачность Т
(С)
Тd
(С)
f
(%)
Тe
(С)
Тes
(С)
Комфортность P
(гПа)
Po
(гПа)
Тmin
(С)
Tmax
(С)
R
(мм)
R24
(мм)
S
(см)
Ю 4 16 км 10/0
[Ac Cb]
+17.2 +14.4 84 +17 +19 1004.0 992.7
ЮВ 3 16 км 8/0 3900 m
[Ac Ci]
+19.4 +15.6 79 +21 +26 комфорт 1003.2 991.7
ЮЗ 2 16 км 8/0 3000 m
[Ac]
+20.6 +15.0 70 +24 +27 комфорт 1002.7 991.3
Ю 4 16 км 8/0 2400 m
[Ac]
+19.4 +15.0 76 +21 +22 комфорт 1002.4 991.0
нст 2 16 км 8/5 1800 m
[Ac]
+19.4 +15.0 76 +22 +22 комфорт 1002.1 990.7
нст 2 16 км 8/0 2700 m
[Ac]
+18.9 +15.0 78 +21 +21 комфорт 1002.5 991.3 +16.7 +21.1
штиль 0 <100 м гроза 10/0 2400 m
[Ac Cb]
+17.8 +15.6 87 +18 +18 991.3
СЗ 7
{10}
16 км гроза со слабым дождем 10/5 720 m
[Ac]
+18.3 +15.0 81
СЗ 2 16 км гроза со слабым дождем 8/8 660 м +17.2 +13.9 81 +18 +18 1003.8 992.4
СЗ 2 16 км 2/2 1290 m
[Ac]
+17.2 +13.9 81 +18 +18 992.7
нст 3 16 км 2/0 2700 m
[Ac]
+17.8 +13.9 78 +18 +18 1004.5 993.0
ЮВ 3 16 км 2/0 2850 m
[Ac]
+15.6 +13.9 90 +15 +15 1005.0 993.7
штиль 0 16 км 8/0 3000 m
[Ac]
+16.1 +13.9 87 +16 +16 1005.1 993.7
штиль 0 16 км 2/0 3000 m
[Ac]
+15.6 +13.3 86 +15 +15 1005.0 993.7
ЮЗ 3 16 км 2/0 3000 m
[Ac]
+15.6 +12.8 83 +15 +15 1005.4 994.0 +13.3 +18.9
С 2 16 км ясно +15.0 +11.7 81 +15 +15 1004.9 993.7
ЮВ 3 16 км ясно +13.3 +11.1 87 +12 +12 1004.7 993.4
штиль 0 16 км ясно +13.9 +11.1 83 +14 +14 1005.1 993.7
штиль 0 16 км 8/8 1320 м +15.0 +12.2 83 +15 +15 1005.3 994.0
штиль 0 16 км 5/5 1320 м +12.8 +11.1 89 +12 +12 1005.4 994.0
штиль 0 16 км 5/5 1320 м +12.8 +11.1 89 +12 +12 1006.0 994.7 +12.2 +16.1 11.7
ЮЗ 3 16 км ясно +16.1 +12.2 78 +16 +16 1006.0 994.7
З 2 16 км 5/5 1200 м +17.2 +10.0 63 +18 +19 1006.1 994.7
З 7 16 км 5/5 1200 м +20.0 +12.2 61 +21 +22 комфорт 1006.0 994.7
ЮЗ 6
{13}
16 км 8/8 1200 м +22.2 +11.1 49 +24 +25 комфорт 1005.8 994.4
ЮЗ 6
{12}
16 км 8/8 1200 м +22.2 +8.9 43 +24 +25 комфорт 1005.7 994.4
З 8 16 км 10/10 1350 м +22.2 +10.0 46 +24 +24 комфорт 1005.8 994.4 +13.9 +22.2
З 5
{8}
16 км 8/5 1350 m
[Ac]
+21.1 +8.9 46 +22 +24 комфорт 1005.8 994.4
ЮЗ 5
{9}
н/о 8/2 1350 m
[Ac]
+21.1 +8.9 46 +22 +24 комфорт 1005.6 994.4
ЮЗ 6
{9}
н/о 5/2 1350 m
[Ac]
+22.2 +8.9 43 +24 +25 комфорт 1005.6 994.4
З 6
{10}
16 км 8/0 2250 m
[Ac]
+21.1 +7.8 42 +22 +23 комфорт 1006.3 995.0
З 6 16 км 2/0 2250 m
[Ac]
+20.0 +8.9 49 +21 +21 комфорт 1007.0 995.7
З 5
{9}
16 км 2/0 2250 m
[Ac]
+18.9 +7.8 48 +19 +19 1007.8 996.4 +18.9 +22.2
З 6
{10}
16 км 2/0 3000 m
[Ac]
+18.9 +7.2 47 +19 +19 1008.5 997.0
ЮЗ 6 16 км 8/0 3000 m
[Ac Ci]
+17.2 +7.8 54 +16 +16 1008.9 997.4
З 5 16 км 8/0 3000 m
[Ac Ci]
+17.2 +7.2 52 +17 +17 1009.5 998.0
ЮЗ 3 16 км 8/0 3000 m
[Ac Ci]
+16.1 +7.8 58 +16 +16 1009.7 998.4
СЗ 3 16 км 8/0 3000 m
[Ac Ci]
+15.0 +7.2 60 +14 +14 1010.0 998.7
З 4 16 км 10/0 3300 m
[Ac Ci]
+16.7 +6.7 52 +16 +16 1009.9 998.7
З 3 16 км 10/0 6900 m
[Ci]
+15.6 +6.7 55 +15 +15 1009.8 998.4
ЮЗ 2 16 км 10/0 6600 m
[Ci]
+14.4 +7.8 65 +14 +14 1009.6 998.4
Ю 3 16 км 10/0 6600 m
[Ci]
+14.4 +7.8 65 +14 +14 1009.9 998.4
З 3 16 км 10/0 6000 m
[Ac]
+14.4 +6.7 60 +14 +14 1009.7 998.4
СЗ 2 16 км 10/0 6000 m
[Ac]
+12.8 +6.7 66 +12 +12 1010.0 998.7
З 4 16 км 8/0 4500 m
[Ac]
+12.8 +7.2 69 +11 +11 1010.9 999.4 +11.7 +16.7
З 2 16 км 5/0 4500 m
[Ac]
+14.4 +7.2 62 +14 +14 1011.4 1000.1
З 2 16 км ясно +16.1 +7.2 56 +16 +19 1011.6 1000.1
З 6
{11}
16 км ясно +17.2 +7.2 52 +16 +18 1012.1 1000.7
Местоположение метеостанции Harrisburg International Airport: широта 40.1936 долгота -76.7633 высота над уровнем моря 95 м.
В архиве по умолчанию представлена погода в Гаррисберге за последние 1-2 суток. Обновление информации о фактической погоде в базе происходит ежечасно! Архивные данные за месяц целиком и за предыдущие месяцы Вы можете получить, выбрав интересующий диапазон дат из раскрывающегося списка и нажав кнопку "Ввод!".
Внимание! Архив погоды МЕТАР в базе сайта по станциям, не включенным в климатический монитор, хранится не более 60 дней. Нет смысла пытаться выбрать более раннюю дату.
*Определитесь, кто Вы:
Внимание! Время в таблицах - местное (без учета летнего времени). Для получения всемирного времени необходимо вычесть поправку, которая равна -5 ч.
Смотрите также архив погоды в соседних городах и на ближайших метеорологических станциях:
Партнеры нашего сайта:      
Пояснения к столбцам:
  • Ветер - указаны скорость ветра в м/с - средняя за 10 мин, порывы в срок и между сроками (в фигурных скобках) и направление, откуда дует ветер: С - северный,
  • СВ - северо-восточный, В - восточный, ЮВ - юго-восточный, Ю - южный, ЮЗ - юго-западный, З - западный, СЗ - северо-западный.
  • Видимость - горизонтальная дальность видимости в метрах или километрах. При видимости от 1 до 10 км при отсутствии осадков обычно наблюдается дымка, при ухудшении видимости до 1 км и менее - туман. В сухую погоду видимость может ухудшаться дымом, пылью или мглою.
  • Явления - указаны атмосферные явления, наблюдавшиеся в срок или в последний час перед сроком; фигурными скобками обозначены явления, наблюдавшиеся между сроками (за 1-3 часа до срока); квадратными скобками обозначены град или гололедные отложения с указанием их диаметра в мм.
  • Облачность - указаны через наклонную черту общая и нижняя облачность в баллах и высота нижней границы облаков в метрах; квадратными скобками обозначены формы облаков: Ci - перистые, Cs - перисто-слоистые, Cc - перисто-кучевые, Ac - высококучевые, As - высокослоистые, Sc - слоисто-кучевые, Ns - слоисто-дождевые, Cu - кучевые, Cb - кучево-дождевые. Подробнее классификацию облаков см. в Атласе облаков (PDF).
  • T - Температура воздуха - температура, измеренная на высоте 2 м над землей.
  • Td - Температура точки росы - температура, при понижении до которой содержащийся в воздухе водяной пар достигнет насыщения.
  • f - Относительная влажность воздуха - влажноcть воздуха, измеренная на высоте 2 м над землей.
  • Te - Эффективная температура - температура, которую ощущает одетый по сезону человек в тени. Характеристика душности погоды. При расчете учитывается влияние влажности воздуха и скорости ветра на теплоощущения человека.
  • Tes - Эффективная температура на солнце - температура, которую ощущает человек, с поправкой на солнечный нагрев. Характеристика знойности погоды. Зависит от высоты солнца над горизонтом, облачности и скорости ветра. Ночью, в пасмурную погоду, а также при ветре 12 м/с и более поправка равна нулю.
  • P - Атмосферное давление - приведенное к уровню моря атмосферное давление.
  • Po - Атмосферное давление - измеренное на уровне метеостанции атмосферное давление.
  • Tmin - Минимальная температура - минимум температуры воздуха на высоте 2 м над землей.
  • Tmax - Максимальная температура - максимум температуры воздуха на высоте 2 м над землей.
  • R - Количество осадков - Количество выпавших осадков за период времени, мм. При наведении курсора мыши на число - период времени, за который выпало указанное количество осадков.
  • R24 - Количество осадков - Количество выпавших осадков за 24 часа, мм.
  • S - Снежный покров - Высота снежного покрова, см. При наведении курсора мыши на число - состояние снежного покрова и степень покрытия местности в баллах.